OBJECT R, 57181

Orbit data source: Space-Track

You're viewing an uncataloged RSO

Recently launched and/or uncataloged RSOs may have evolving metadata. Metadata may include the following, but is not limited to: Owner, Manufacturer, Bus, Motor, and Mission.

OBJECT R, 57181 is a satellite in SSO that was launched on Tue, 27 Jun 2023 UTC via a SOYUZ-2-1B launch vehicle from the Vostochny Cosmodrome (VOSTO). Unknown objects in Earth's orbit typically refer to objects detected orbiting the Earth but have not yet been identified or cataloged. These objects could be anything from previously untracked satellites, spent rocket stages, debris from satellite collisions, or even natural meteoroids temporarily captured by Earth's gravity.

Loading next visibility...
Identifier
57181, 2023-091R
Orbit
SSO
Country
Flag of TBDTBD
Related business
None
Manufacturer
Unknown
Mission
Operational Amateur Communications
Bus & Motor
Unknown
Mass
Unknown
Launch date (UTC)
2023-06-27 (3 years ago)
Launch vehicle
SOYUZ-2-1B
Launch site
Vostochny Cosmodrome (VOSTO)
Object type
Unknown
Shape & HBR
Box, 0.2 m
Radar Cross Section
0.035 m², Medium (>0.1 m² and < 1m²)

Expand to show TLE details & history
Last TLE update: 7 hours ago

TLE from 7 hours ago
0 OBJECT R
1 57181U 23091R   26256.94609528  .00002095  00000-0  11577-3 0  9991
2 57181  97.4976 309.7023 0014703 184.4371 175.6734 15.14926507177124
Epoch: 2026-09-13T22:42Z
TLE epoch observation values (Epoch: 2026-09-13T22:42:22.632Z)
Latitude
0.00007°
Longitude
-23.82546°
Altitude
534.4 km
Speed
7.59 km/s
True Right ascension
20h 38m 48s
True Declination
0° 00' 00"
Sunlit
Object was in full shadow at epoch
Visualization orbit readout
Latitude
Unknown
Longitude
Unknown
Altitude
Unknown
Speed
Unknown
Apparent Right ascension
Unknown
Apparent Declination
Unknown
Sunlit
N/A
Visualization observer readout
Local Sidereal Time
22:40:39
Azimuth
Unknown
Elevation
Unknown
Doppler factor
Unknown
Orbital elements
Apogee altitude
528.318 km
Perigee altitude
508.039 km
Semi-major axis
6,896.315 km
Eccentricity
0.00147
Inclination
97.4976°
RAAN
309.7023°
Arg. of periapsis
184.4371°
True anomaly
175.68609°
Mean anomaly
175.6734°
Eccentric anomaly
175.67975°
Mean motion
3.78981 °/min
Orbital period
94.99 mins
BSTAR
0.00011577
Loading maneuver chart data...
Computing Atmospheric mass density...
Loading historical data...
Loading historical data...
Loading historical data...
Loading historical data...
Loading historical data...
Loading historical data...
Loading historical data...

Documentation

Showing up to 5 results
|